Simultaneous Nadir Overpasses (SNOs) Predictions

Prediction of SNOs between GOES-16 and METOP-C Satellite Orbit:

Table of predicted SNOs for the next 14.0 days since TLE Epoch: 1/6/2024
Index Date Time (GOES-16) GOES-16 Lat,Lon METOP-C Lat,Lon Distance(km) Time Diff (sec)
1 01/07/2024 02:35:26 0.02, -75.20 -0.16, -76.10 102.37 80
2 01/08/2024 02:12:06 0.02, -75.20 0.94, -71.11 466.87 80
3 01/09/2024 14:33:39 -0.02, -75.23 0.05, -75.67 49.62 80
4 01/12/2024 02:31:59 0.02, -75.22 0.01, -75.27 5.83 80
5 01/14/2024 14:27:31 -0.02, -75.26 -0.09, -74.83 48.68 80
6 01/16/2024 02:49:11 0.01, -75.26 -0.95, -79.42 475.57 80
7 01/17/2024 02:25:53 0.01, -75.27 0.22, -74.44 95.05 80
8 01/18/2024 14:47:24 -0.01, -75.31 0.79, -79.00 419.45 80
9 01/19/2024 14:26:45 -0.02, -75.33 -0.33, -74.01 151.42 80
